Weather History for KBWI - November, 2014

Change the Weather History Date:

Saturday, November 29, 2014

  Actual Average Record
Temperature  
Mean Temperature 35 °F 42 °F  
Max Temperature 44 °F 51 °F 74 °F (1927)
Min Temperature 25 °F 33 °F 13 °F (1955)
Degree Days  
Heating Degree Days 30 23  
Month to date heating degree days 626 534  
Since 1 July heating degree days 878 881  
Cooling Degree Days 0 0  
Month to date cooling degree days 0 0  
Year to date cooling degree days 1084 1163  
Moisture  
Dew Point 25 °F    
Average Humidity 67    
Maximum Humidity 85    
Minimum Humidity 48    
Precipitation  
Precipitation 0.00 in 0.12 in 2.08 in (1987)
Month to date precipitation 3.36 3.18  
Year to date precipitation 49.00 38.39  
Snow  
Snow 0.00 in 0.10 in 1.00 in (1952)
Month to date snowfall 0.3 0.4  
Since 1 July snowfall 0.3 0.4  
Snow Depth 0.00 in    
Sea Level Pressure  
Sea Level Pressure 30.27 in    
Wind  
Wind Speed 5 mph (SE)    
Max Wind Speed 12 mph    
Max Gust Speed 16 mph    
Visibility 10 miles    
Events      
T = Trace of Precipitation, MM = Missing Value Source: NWS Daily Summary

Daily Weather History Graph

Daily Weather History Graph

Search for Another Location

Airport or City:

Trip Planner

Search our weather history database for the weather conditions in past years. The results will help you decide how hot, cold, wet, or windy it might be!

Date:

Astronomy

Nov. 29, 2014 Rise Set
Actual Time 7:05 AM EST 4:44 PM EST
Civil Twilight 6:35 AM EST 5:14 PM EST
Nautical Twilight 6:02 AM EST 5:47 PM EST
Astronomical Twilight 5:30 AM EST 6:19 PM EST
Moon 12:35 PM EST (11/29) No Moon Set
Length of Visible Light 10h 38m
Length of Day
9h 39m
First Quarter, 53% of the Moon is Illuminated
Nov 29
First Quarter
Dec 6
Full
Dec 14
Last Quarter
Dec 21
New
Dec 28
First Quarter

Hourly Weather History & Observations

Time (EST) Temp. Windchill Dew Point Humidity Pressure Visibility Wind Dir Wind Speed Gust Speed Precip Events Conditions
12:54 AM 27.0 °F - 21.0 °F 78% 30.30 in 10.0 mi Calm Calm - N/A   Mostly Cloudy
1:54 AM 26.1 °F - 21.0 °F 81% 30.31 in 10.0 mi Calm Calm - N/A   Mostly Cloudy
2:54 AM 27.0 °F - 21.9 °F 81% 30.32 in 10.0 mi Calm Calm - N/A   Mostly Cloudy
3:54 AM 28.0 °F - 23.0 °F 81% 30.32 in 10.0 mi Calm Calm - N/A   Overcast
4:54 AM 28.9 °F - 24.1 °F 82% 30.32 in 10.0 mi Calm Calm - N/A   Overcast
5:54 AM 30.0 °F - 23.0 °F 75% 30.33 in 10.0 mi Calm Calm - N/A   Overcast
6:54 AM 30.0 °F - 24.1 °F 79% 30.34 in 10.0 mi Calm Calm - N/A   Mostly Cloudy
7:54 AM 30.9 °F 27.5 °F 23.0 °F 72% 30.33 in 10.0 mi ESE 3.5 mph - N/A   Overcast
8:54 AM 33.1 °F 28.7 °F 21.0 °F 61% 30.34 in 10.0 mi SE 4.6 mph - N/A   Overcast
9:54 AM 34.0 °F 26.0 °F 18.0 °F 52% 30.35 in 10.0 mi ESE 10.4 mph - N/A   Overcast
10:54 AM 37.0 °F 31.0 °F 19.9 °F 50% 30.33 in 10.0 mi SE 8.1 mph - N/A   Mostly Cloudy
11:54 AM 39.9 °F 33.9 °F 21.0 °F 47% 30.30 in 10.0 mi SE 9.2 mph - N/A   Scattered Clouds
12:54 PM 41.0 °F 37.1 °F 24.1 °F 51% 30.26 in 10.0 mi Variable 5.8 mph - N/A   Mostly Cloudy
1:54 PM 42.1 °F 37.7 °F 26.1 °F 53% 30.23 in 10.0 mi SE 6.9 mph - N/A   Mostly Cloudy
2:54 PM 42.1 °F 37.1 °F 28.0 °F 58% 30.23 in 10.0 mi ESE 8.1 mph - N/A   Mostly Cloudy
3:54 PM 43.0 °F 39.5 °F 28.9 °F 58% 30.22 in 10.0 mi SE 5.8 mph - N/A   Mostly Cloudy
4:54 PM 43.0 °F 38.2 °F 28.9 °F 58% 30.23 in 10.0 mi SE 8.1 mph - N/A   Overcast
5:54 PM 43.0 °F 39.5 °F 30.9 °F 62% 30.23 in 10.0 mi SE 5.8 mph - N/A   Overcast
6:54 PM 43.0 °F 40.3 °F 32.0 °F 65% 30.22 in 10.0 mi SE 4.6 mph - N/A   Mostly Cloudy
7:54 PM 43.0 °F 40.3 °F 32.0 °F 65% 30.21 in 10.0 mi SE 4.6 mph - N/A   Mostly Cloudy
8:54 PM 43.0 °F 39.5 °F 28.9 °F 58% 30.19 in 10.0 mi South 5.8 mph - N/A   Overcast
9:54 PM 44.1 °F 39.5 °F 28.0 °F 53% 30.18 in 10.0 mi South 8.1 mph - N/A   Overcast
10:54 PM 43.0 °F 39.5 °F 28.9 °F 58% 30.17 in 10.0 mi South 5.8 mph - N/A   Overcast
11:54 PM 43.0 °F 41.3 °F 28.9 °F 58% 30.16 in 10.0 mi South 3.5 mph - N/A   Mostly Cloudy